Regional Weather Roundup
Issued by NWS

Home | Current Version | Previous Version | Text Only | Print | Product List | Glossary Off
Versions: 1 2 3 4 5 6 7 8 9 10 11 12 13 14 15 16 17 18 19 20 21 22 23 24 25 26 27 28 29 30 31 32 33 34 35 36 37 38 39 40 41 42 43 44 45 46 47 48 49 50

000
ASUS45 KCYS 160810
RWRWY

WYOMING REGIONAL WEATHER ROUNDUP
NATIONAL WEATHER SERVICE CHEYENNE WY
200 AM MDT TUE SEP 16 2014

NOTE:  "FAIR" INDICATES FEW OR NO CLOUDS BELOW 12,000 FEET
WITH NO SIGNIFICANT WEATHER AND/OR OBSTRUCTIONS TO VISIBILITY.

WYZ001-160900-
YELLOWSTONE NATIONAL PARK

CITY           SKY/WX    TMP DP  RH WIND       PRES   REMARKS
LK YELLOWSTONE   N/A     34  29  82 NW3       30.36S
W YELLOWSTONE  NOT AVBL

$$
WYZ002>013-054>058-071-098>099-160900-
NORTHERN WYOMING

CITY           SKY/WX    TMP DP  RH WIND       PRES   REMARKS
JACKSON        CLEAR     39  30  70 NW5       30.29R
CODY           CLEAR     57  39  51 SW8       30.16S
GREYBULL       CLEAR     50  44  80 SE5       30.11R
WORLAND        CLEAR     51  44  77 CALM      30.12R
SHERIDAN       CLEAR     43  39  86 CALM      30.09S
BUFFALO        CLEAR     55  33  43 N5        30.14S
GILLETTE       CLEAR     53  44  71 CALM      30.11S
HULETT         FAIR      55  43  62 MISG      30.11
NEWCASTLE      FAIR      52  41  66 NE3       30.10

$$
WYZ014>020-022>026-101>103-160900-
CENTRAL WYOMING

CITY           SKY/WX    TMP DP  RH WIND       PRES   REMARKS
BIG PINEY      CLEAR     40  25  55 E7        30.33R
PINEDALE       PTSUNNY   37  32  81 W6        30.34S WCI  33
DUBOIS         FAIR      45  27  49 NW10      30.31R
LANDER         CLEAR     60  35  39 CALM      30.19R
RIVERTON       PTCLDY    56  37  49 W8        30.20R
CASPER         PTCLDY    45  38  76 CALM      30.17R
DOUGLAS        MOCLDY    49  44  83 W3        30.14R

$$
WYZ021-027>030-104>119-160900-
SOUTHERN WYOMING

CITY           SKY/WX    TMP DP  RH WIND       PRES   REMARKS
EVANSTON       CLEAR     56  31  38 SE7       30.33R
KEMMERER       SUNNY     48  32  53 N9        30.34S
FORT BRIDGER   FAIR      57  31  37 SW7       30.35R
ROCK SPRINGS   CLEAR     55  32  41 SW6       30.30R
DIXON          FAIR      46  38  76 CALM      30.32S
RAWLINS        CLEAR     58  34  40 SW12      30.27S
SARATOGA       FAIR      52  36  54 SE7       30.31R
LARAMIE        PTCLDY    46  37  71 S9        30.29S
CHEYENNE       CLEAR     53  44  71 SW8       30.22F
TORRINGTON     PTCLDY    52  48  86 E10       30.10F
PINE BLUFFS    FAIR      46  46 100 W3        30.19F

$$


USA.gov is the U.S. government's official web portal to all federal, state and local government web resources and services.